Station History

Weather Underground - logo

Station Historical Data
Daily Summary for January 28, 2018 Units:  Metric    English   Both
« Previous Day
Next Day »
Daily Weekly Monthly Yearly Custom
  High: Low: Average:
Temperature: -17.8 °C 5.3 °C 9.7 °C
Dew Point: -17.8 °C 4 °C 6.2 °C
Humidity: Humidity % 54 % 79 %
Wind Speed: 0 km/h 0 km/h 0.2 km/h
Wind Gust: 0 km/h - -
Wind:- - WNW
Pressure: 0 hPa 1026 hPa -
Precipitation: 0 mm    
Historical Graphs
 
 
Tabular Data for January 28, 2018
Time Temperature Dew Point Pressure Wind Wind Speed Wind Gust Humidity Rainfall Rate (Hourly)
-17.8 °C -17.8 °C 0 hPa Calm     Humidity % 0 mm
10:42 14 °C 7.3 °C 1030 hPa WSW 3.7 km/h 3.7 km/h 64 % 0 mm
15:48 16.9 °C 7.5 °C 1026.6 hPa NW 5.6 km/h 5.6 km/h 54 % 0 mm
15:53 16.9 °C 7.8 °C 1026.6 hPa WNW 1.9 km/h   55 % 0 mm
15:58 16.9 °C 7.5 °C 1026.6 hPa NW 1.9 km/h 1.9 km/h 54 % 0 mm
16:03 16.8 °C 7.4 °C 1026.6 hPa Calm     54 % 0 mm
16:08 16.8 °C 7.7 °C 1026.3 hPa Calm     55 % 0 mm
16:13 16.7 °C 7.6 °C 1026.3 hPa Calm     55 % 0 mm
16:18 16.6 °C 7.5 °C 1026.3 hPa Calm     55 % 0 mm
16:23 16.5 °C 7.7 °C 1026.3 hPa Calm     56 % 0 mm
16:28 16.3 °C 7.6 °C 1026.3 hPa Calm     56 % 0 mm
16:33 16.2 °C 7.7 °C 1026 hPa Calm     57 % 0 mm
16:38 16.2 °C 7.9 °C 1026 hPa Calm     58 % 0 mm
16:43 16.1 °C 7.8 °C 1026 hPa Calm     58 % 0 mm
16:48 16 °C 8 °C 1026 hPa Calm     59 % 0 mm
16:53 15.8 °C 8.1 °C 1026 hPa Calm     60 % 0 mm
16:58 15.6 °C 8.1 °C 1026 hPa Calm     61 % 0 mm
17:03 15.3 °C 8.3 °C 1026 hPa Calm     63 % 0 mm
17:08 14.9 °C 8.2 °C 1026.3 hPa Calm     64 % 0 mm
17:13 14.6 °C 8.1 °C 1026.3 hPa Calm     65 % 0 mm
17:18 14.3 °C 8.2 °C 1026.3 hPa Calm     67 % 0 mm
17:23 14 °C 8.2 °C 1026.3 hPa Calm     68 % 0 mm
17:28 13.7 °C 8.1 °C 1026.3 hPa Calm     69 % 0 mm
17:33 13.4 °C 8 °C 1026.3 hPa Calm     70 % 0 mm
17:38 13.1 °C 8.1 °C 1026.3 hPa Calm     72 % 0 mm
17:43 12.7 °C 8.2 °C 1026.3 hPa Calm     74 % 0 mm
17:48 12.4 °C 7.9 °C 1026.3 hPa Calm     74 % 0 mm
17:53 12.2 °C 8.1 °C 1026.3 hPa Calm     76 % 0 mm
17:58 11.8 °C 7.7 °C 1026.3 hPa Calm     76 % 0 mm
18:03 11.6 °C 7.7 °C 1026.3 hPa Calm     77 % 0 mm
18:08 11.3 °C 7.8 °C 1026.3 hPa Calm     79 % 0 mm
18:13 11.1 °C 7.6 °C 1026.3 hPa Calm     79 % 0 mm
18:18 11 °C 7.7 °C 1026.3 hPa Calm     80 % 0 mm
18:23 10.9 °C 7.6 °C 1026.3 hPa Calm     80 % 0 mm
18:28 10.8 °C 7.7 °C 1026.3 hPa Calm     81 % 0 mm
18:33 10.6 °C 7.4 °C 1026.3 hPa Calm     81 % 0 mm
18:38 10.3 °C 7.2 °C 1026.6 hPa Calm     81 % 0 mm
18:43 10.2 °C 7.2 °C 1026.6 hPa Calm     82 % 0 mm
18:49 10.1 °C 7.1 °C 1026.6 hPa Calm     82 % 0 mm
18:54 10 °C 7.2 °C 1026.6 hPa Calm     83 % 0 mm
18:59 9.9 °C 7.2 °C 1026.6 hPa Calm     83 % 0 mm
19:04 9.8 °C 7 °C 1026.6 hPa Calm     83 % 0 mm
19:09 9.7 °C 6.9 °C 1026.6 hPa Calm     83 % 0 mm
19:14 9.6 °C 6.9 °C 1026.6 hPa Calm     83 % 0 mm
19:19 9.5 °C 6.9 °C 1026.6 hPa Calm     84 % 0 mm
19:24 9.7 °C 7.1 °C 1026.6 hPa Calm     84 % 0 mm
19:29 9.8 °C 7 °C 1026.6 hPa Calm     83 % 0 mm
19:34 9.6 °C 6.7 °C 1026.6 hPa Calm     82 % 0 mm
19:39 9.4 °C 6.7 °C 1026.6 hPa Calm     83 % 0 mm
19:44 9.2 °C 6.6 °C 1026.6 hPa Calm     84 % 0 mm
19:49 9 °C 6.6 °C 1026.6 hPa Calm     85 % 0 mm
19:54 8.8 °C 6.4 °C 1026.6 hPa Calm     85 % 0 mm
19:59 8.7 °C 6.5 °C 1026.6 hPa Calm     86 % 0 mm
20:04 8.6 °C 6.4 °C 1026.6 hPa Calm     86 % 0 mm
20:09 8.5 °C 6.3 °C 1026.6 hPa Calm     86 % 0 mm
20:14 8.3 °C 6.1 °C 1026.6 hPa Calm     86 % 0 mm
20:19 8.2 °C 5.9 °C 1027 hPa Calm     86 % 0 mm
20:24 8 °C 5.8 °C 1027 hPa Calm     86 % 0 mm
20:29 7.9 °C 5.7 °C 1027 hPa Calm     86 % 0 mm
20:34 7.8 °C 5.8 °C 1027 hPa Calm     87 % 0 mm
20:39 7.9 °C 6.1 °C 1026.6 hPa Calm     88 % 0 mm
20:44 8.1 °C 6.2 °C 1026.6 hPa Calm     88 % 0 mm
20:49 7.8 °C 5.6 °C 1026.6 hPa Calm     86 % 0 mm
20:54 7.7 °C 5.7 °C 1026.6 hPa Calm     87 % 0 mm
20:59 7.5 °C 5.5 °C 1026.6 hPa Calm     87 % 0 mm
21:04 7.5 °C 5.7 °C 1026.6 hPa Calm     88 % 0 mm
21:09 7.4 °C 5.6 °C 1026.6 hPa Calm     88 % 0 mm
21:14 7.3 °C 5.4 °C 1027 hPa Calm     88 % 0 mm
21:19 7.3 °C 5.6 °C 1027 hPa Calm     89 % 0 mm
21:24 7.2 °C 5.6 °C 1027 hPa Calm     89 % 0 mm
21:29 7.1 °C 5.4 °C 1027 hPa Calm     89 % 0 mm
21:34 7 °C 5.3 °C 1027 hPa Calm     89 % 0 mm
21:39 6.9 °C 5.4 °C 1027 hPa Calm     90 % 0 mm
21:44 6.9 °C 5.4 °C 1027 hPa Calm     90 % 0 mm
21:49 6.9 °C 5.4 °C 1027 hPa Calm     90 % 0 mm
21:54 6.9 °C 5.4 °C 1027 hPa Calm     90 % 0 mm
22:00 6.9 °C 5.6 °C 1027 hPa Calm     91 % 0 mm
22:05 6.9 °C 5.6 °C 1027 hPa Calm     91 % 0 mm
22:10 6.9 °C 5.4 °C 1027 hPa Calm     90 % 0 mm
22:15 6.8 °C 5.1 °C 1027 hPa Calm     89 % 0 mm
22:20 6.6 °C 4.9 °C 1027 hPa Calm     89 % 0 mm
22:25 6.4 °C 4.9 °C 1027 hPa Calm     90 % 0 mm
22:30 6.3 °C 4.8 °C 1027 hPa Calm     90 % 0 mm
22:35 6.2 °C 4.7 °C 1027 hPa Calm     90 % 0 mm
22:40 6.1 °C 4.6 °C 1027 hPa Calm     90 % 0 mm
22:45 6 °C 4.7 °C 1027 hPa Calm     91 % 0 mm
22:50 5.9 °C 4.6 °C 1027 hPa Calm     91 % 0 mm
22:55 6 °C 4.8 °C 1027 hPa Calm     92 % 0 mm
23:00 6.1 °C 4.8 °C 1027 hPa Calm     92 % 0 mm
23:05 6.2 °C 4.9 °C 1026.6 hPa Calm     92 % 0 mm
23:10 6.2 °C 5 °C 1026.6 hPa Calm     92 % 0 mm
23:15 6.4 °C 5.4 °C 1026.6 hPa Calm     93 % 0 mm
23:20 6.6 °C 5.3 °C 1027 hPa Calm     92 % 0 mm
23:25 6.4 °C 4.9 °C 1027 hPa WNW 1.9 km/h 1.9 km/h 90 % 0 mm
23:30 6 °C 4.5 °C 1027 hPa Calm     90 % 0 mm
23:35 5.8 °C 4.3 °C 1027 hPa Calm     90 % 0 mm
23:40 5.7 °C 4.4 °C 1027.3 hPa Calm     91 % 0 mm
23:45 5.6 °C 4.3 °C 1027.3 hPa Calm     91 % 0 mm
23:50 5.5 °C 4.2 °C 1027.3 hPa Calm     91 % 0 mm
23:55 5.3 °C 4 °C 1027.3 hPa Calm     91 % 0 mm
Park Place, Exeter, Tulare County, California, USA
Compliments of Weather Underground - 1.75 mb